IW3HBX-13 Weather Reports


Display with metric or nautical units.
time (UTC)temp
F
wind
direction
speed
MPH
gust
MPH
rain 1hr
in
rain 24hr
in
rain mn
in
humidity
%
barometer
mb
20260503054807 60 61 0.0 1.0 0.00 0.00 0.00 64 1019.8
20260503054207 61 63 1.0 2.0 0.00 0.00 0.00 65 1019.9
20260503053610 60 53 2.0 3.0 0.00 0.00 0.00 65 1019.8
20260503053007 60 67 1.0 3.0 0.00 0.00 0.00 67 1019.9
20260503052406 59 62 0.0 0.0 0.00 0.00 0.00 68 1019.8
20260503051808 58 69 1.0 2.0 0.00 0.00 0.00 68 1019.9
20260503051207 58 68 2.0 2.0 0.00 0.00 0.00 68 1019.9
20260503050607 58 73 1.0 2.0 0.00 0.00 0.00 69 1019.9
20260503045410 56 76 0.0 2.0 0.00 0.00 0.00 72 1019.9
20260503044807 55 72 1.0 2.0 0.00 0.00 0.00 73 1019.9
20260503044207 55 72 0.0 2.0 0.00 0.00 0.00 74 1019.8
20260503043608 55 72 0.0 0.0 0.00 0.00 0.00 74 1019.9
20260503043007 54 72 1.0 2.0 0.00 0.00 0.00 75 1019.9
20260503042407 53 69 0.0 0.0 0.00 0.00 0.00 78 1019.9
20260503041806 53 69 0.0 0.0 0.00 0.00 0.00 78 1019.9
20260503041209 53 69 0.0 0.0 0.00 0.00 0.00 79 1019.9
20260503040608 53 69 0.0 0.0 0.00 0.00 0.00 78 1019.8
20260503035409 53 69 0.0 0.0 0.00 0.00 0.00 78 1019.8
20260503034807 53 69 0.0 0.0 0.00 0.00 0.00 78 1019.8
20260503034207 53 69 0.0 2.0 0.00 0.00 0.00 78 1019.7
20260503033607 53 69 1.0 2.0 0.00 0.00 0.00 78 1019.7
20260503033007 53 66 1.0 2.0 0.00 0.00 0.00 78 1019.8
20260503032409 53 66 1.0 2.0 0.00 0.00 0.00 78 1019.8
20260503031807 53 66 1.0 2.0 0.00 0.00 0.00 78 1019.9
20260503031207 53 66 0.0 0.0 0.00 0.00 0.00 78 1019.9
20260503030611 53 66 1.0 2.0 0.00 0.00 0.00 77 1019.8
20260503025407 53 66 0.0 2.0 0.00 0.00 0.00 78 1019.9
20260503024808 53 66 0.0 1.0 0.00 0.00 0.00 77 1020.0
20260503024211 53 66 0.0 0.0 0.00 0.00 0.00 77 1020.0
20260503023607 53 66 0.0 0.0 0.00 0.00 0.00 76 1020.0
20260503023007 54 66 0.0 2.0 0.00 0.00 0.00 75 1020.0
20260503022410 54 66 0.0 0.0 0.00 0.00 0.00 75 1020.0
20260503021808 54 66 1.0 2.0 0.00 0.00 0.00 74 1020.0
20260503021207 54 66 1.0 2.0 0.00 0.00 0.00 74 1020.0
20260503020609 54 66 0.0 1.0 0.00 0.00 0.00 73 1020.1
20260503015409 54 66 1.0 2.0 0.00 0.00 0.00 73 1019.9
20260503014808 54 264 0.0 0.0 0.00 0.00 0.00 74 1020.0
20260503014207 54 228 0.0 0.0 0.00 0.00 0.00 74 1019.9
20260503013608 54 225 0.0 0.0 0.00 0.00 0.00 74 1020.0
20260503013007 54 225 0.0 0.0 0.00 0.00 0.00 74 1020.1
20260503012411 54 225 0.0 0.0 0.00 0.00 0.00 74 1020.0
20260503011807 55 225 0.0 0.0 0.00 0.00 0.00 72 1020.0
20260503011207 55 225 0.0 0.0 0.00 0.00 0.00 69 1020.0
20260503010607 55 225 1.0 2.0 0.00 0.00 0.00 70 1020.1
20260503005407 55 225 0.0 0.0 0.00 0.00 0.00 72 1020.2
20260503004807 55 225 0.0 0.0 0.00 0.00 0.00 72 1020.1
20260503004207 55 225 0.0 0.0 0.00 0.00 0.00 72 1020.2
20260503003611 55 225 0.0 0.0 0.00 0.00 0.00 71 1020.2
20260503003007 55 225 0.0 0.0 0.00 0.00 0.00 70 1020.3
20260503002410 54 225 0.0 0.0 0.00 0.00 0.00 71 1020.3
20260503001807 55 225 0.0 0.0 0.00 0.00 0.00 71 1020.4
20260503001207 55 225 0.0 0.0 0.00 0.00 0.00 68 1020.5
20260503000610 55 225 0.0 0.0 0.00 0.00 0.00 69 1020.5
20260502235408 56 225 0.0 0.0 0.00 0.00 0.00 66 1020.5
20260502234807 56 225 0.0 0.0 0.00 0.00 0.00 67 1020.5
20260502234207 55 225 0.0 0.0 0.00 0.00 0.00 68 1020.7
20260502233607 56 225 0.0 0.0 0.00 0.00 0.00 68 1020.7
20260502233007 56 225 0.0 0.0 0.00 0.00 0.00 68 1020.8
20260502232407 57 225 0.0 0.0 0.00 0.00 0.00 67 1020.7
20260502231807 57 225 0.0 0.0 0.00 0.00 0.00 66 1020.8
20260502231211 57 225 0.0 0.0 0.00 0.00 0.00 66 1020.8
20260502230608 58 225 0.0 0.0 0.00 0.00 0.00 65 1020.9
20260502225407 59 225 0.0 0.0 0.00 0.00 0.00 63 1020.9
20260502224808 59 225 0.0 0.0 0.00 0.00 0.00 63 1020.9
20260502224207 59 225 0.0 0.0 0.00 0.00 0.00 62 1020.9
20260502223607 59 225 0.0 0.0 0.00 0.00 0.00 62 1020.9
20260502223011 60 225 0.0 0.0 0.00 0.00 0.00 61 1021.0
20260502222411 61 225 0.0 0.0 0.00 0.00 0.00 59 1021.0
20260502221807 61 225 0.0 0.0 0.00 0.00 0.00 58 1021.1
20260502221209 61 225 0.0 0.0 0.00 0.00 0.00 59 1021.1
20260502220609 61 225 0.0 0.0 0.00 0.00 0.00 58 1021.0
20260502215407 62 225 0.0 1.0 0.00 0.00 0.00 56 1020.9
20260502214807 62 225 0.0 1.0 0.00 0.00 0.00 55 1020.9
20260502214207 62 225 0.0 1.0 0.00 0.00 0.00 55 1020.9
20260502213609 63 225 2.0 3.0 0.00 0.00 0.00 54 1020.9
20260502213008 63 225 2.0 2.0 0.00 0.00 0.00 53 1021.0
20260502212407 63 225 2.0 2.0 0.00 0.00 0.00 53 1021.0
20260502211809 63 225 1.0 2.0 0.00 0.00 0.00 53 1020.9
20260502211209 62 225 2.0 2.0 0.00 0.00 0.00 54 1021.0
20260502210607 62 225 0.0 1.0 0.00 0.00 0.00 55 1021.0
20260502205407 62 225 0.0 0.0 0.00 0.00 0.00 56 1021.0
20260502204810 62 225 0.0 0.0 0.00 0.00 0.00 55 1020.9
20260502204207 62 225 0.0 0.0 0.00 0.00 0.00 56 1020.9
20260502203607 62 225 0.0 0.0 0.00 0.00 0.00 56 1020.9
20260502203009 62 225 0.0 0.0 0.00 0.00 0.00 55 1021.0
20260502202407 63 228 0.0 0.0 0.00 0.00 0.00 56 1021.0
20260502201807 63 225 0.0 0.0 0.00 0.00 0.00 54 1021.1
20260502201208 63 225 0.0 0.0 0.00 0.00 0.00 55 1021.1
20260502200608 63 225 0.0 0.0 0.00 0.00 0.00 54 1021.1
20260502195409 63 225 0.0 0.0 0.00 0.00 0.00 54 1021.1
20260502194808 64 225 0.0 0.0 0.00 0.00 0.00 54 1021.0
20260502194207 64 225 0.0 0.0 0.00 0.00 0.00 54 1021.0
20260502193607 64 225 0.0 0.0 0.00 0.00 0.00 53 1021.0
20260502193008 64 225 0.0 0.0 0.00 0.00 0.00 53 1021.1
20260502192407 65 225 0.0 0.0 0.00 0.00 0.00 52 1020.9
20260502191807 65 225 0.0 0.0 0.00 0.00 0.00 52 1021.0
20260502191211 66 225 0.0 0.0 0.00 0.00 0.00 51 1021.0
20260502190607 66 225 0.0 0.0 0.00 0.00 0.00 50 1020.9
20260502185407 67 225 0.0 0.0 0.00 0.00 0.00 48 1020.8
20260502184807 68 225 0.0 0.0 0.00 0.00 0.00 47 1020.8
20260502184207 69 225 1.0 2.0 0.00 0.00 0.00 45 1020.8
20260502183608 69 225 0.0 0.0 0.00 0.00 0.00 45 1020.7
20260502183010 69 225 1.0 2.0 0.00 0.00 0.00 44 1020.6
20260502182407 69 225 0.0 0.0 0.00 0.00 0.00 44 1020.7
20260502181807 71 225 2.0 2.0 0.00 0.00 0.00 42 1020.6
20260502181208 71 225 1.0 3.0 0.00 0.00 0.00 42 1020.7
20260502180608 71 227 1.0 2.0 0.00 0.00 0.00 41 1020.5
20260502164208 76 224 3.0 5.0 0.00 0.00 0.00 34 1020.7
20260502163608 76 223 3.0 5.0 0.00 0.00 0.00 34 1020.7
20260502163009 77 226 2.0 4.0 0.00 0.00 0.00 35 1020.8
20260502162410 77 231 2.0 3.0 0.00 0.00 0.00 34 1020.9
20260502161807 76 223 4.0 5.0 0.00 0.00 0.00 35 1020.9
20260502161207 77 234 4.0 7.0 0.00 0.00 0.00 34 1020.9
20260502160609 77 239 3.0 5.0 0.00 0.00 0.00 33 1021.0
20260502151807 77 230 3.0 5.0 0.00 0.00 0.00 32 1021.4
20260502151207 78 224 2.0 3.0 0.00 0.00 0.00 32 1021.4
20260502150607 78 227 2.0 5.0 0.00 0.00 0.00 32 1021.5
20260502130609 76 268 3.0 8.0 0.00 0.00 0.00 33 1022.9
20260502123607 75 216 5.0 6.0 0.00 0.00 0.00 33 1023.4
20260502122408 76 259 5.0 9.0 0.00 0.00 0.00 33 1023.6
20260502121807 75 272 3.0 6.0 0.00 0.00 0.00 33 1023.5
20260502121207 76 301 1.0 2.0 0.00 0.00 0.00 34 1023.6
20260502120609 76 182 3.0 4.0 0.00 0.00 0.00 35 1023.7
20260502115407 74 14 2.0 3.0 0.00 0.00 0.00 35 1023.9
20260502114810 74 239 2.0 4.0 0.00 0.00 0.00 35 1023.9
20260502114207 75 232 5.0 7.0 0.00 0.00 0.00 35 1023.9
20260502113607 76 242 3.0 5.0 0.00 0.00 0.00 34 1024.2
20260502112407 72 224 2.0 5.0 0.00 0.00 0.00 35 1024.2
20260502111810 73 228 6.0 9.0 0.00 0.00 0.00 35 1024.4
20260502111207 73 240 3.0 5.0 0.00 0.00 0.00 35 1024.4
20260502110607 74 249 2.0 7.0 0.00 0.00 0.00 34 1024.6
20260502105410 74 284 3.0 5.0 0.00 0.00 0.00 34 1024.7
20260502104808 73 232 3.0 5.0 0.00 0.00 0.00 36 1024.8
20260502104207 74 253 3.0 4.0 0.00 0.00 0.00 35 1024.8
20260502103607 73 236 2.0 4.0 0.00 0.00 0.00 35 1024.9
20260502102407 72 229 4.0 7.0 0.00 0.00 0.00 36 1025.2
20260502101806 73 239 3.0 4.0 0.00 0.00 0.00 36 1025.2
20260502101207 73 183 2.0 3.0 0.00 0.00 0.00 36 1025.2
20260502100607 71 240 3.0 5.0 0.00 0.00 0.00 36 1025.3
20260502091210 70 270 1.0 5.0 0.00 0.00 0.00 39 1025.8
20260502090607 69 222 2.0 4.0 0.00 0.00 0.00 40 1025.8
20260502071207 63 346 1.0 2.0 0.00 0.00 0.00 50 1026.5
20260502070607 63 67 2.0 3.0 0.00 0.00 0.00 51 1026.5
20260502065408 63 264 1.0 2.0 0.00 0.00 0.00 53 1026.6
20260502064807 61 296 0.0 2.0 0.00 0.00 0.00 54 1026.6
20260502064207 60 297 1.0 2.0 0.00 0.00 0.00 55 1026.5
20260502063607 60 299 1.0 2.0 0.00 0.00 0.00 57 1026.5
20260502063007 59 300 1.0 2.0 0.00 0.00 0.00 55 1026.6
20260502062408 59 298 0.0 1.0 0.00 0.00 0.00 57 1026.6